Location: Capizzone
(45.7833°N, 9.5667°E)
Time: 13:01:10
(UTC+00:00)

Daily predictions for brighter satellites

Satellite Brightness Start Highest point End
(mag) Time Altitude Azimuth Time Altitude Azimuth Time Altitude Azimuth
SL-24 R/B 4.4 16:44:39 10° SSE 16:49:09 86° ENE 16:54:11 10° NNW
Cosmos 1626 Rocket 3.9 16:45:34 10° SSE 16:49:46 46° E 16:54:02 10° NNE
Cosmos 1092 Rocket 4.4 16:44:53 10° SSE 16:50:35 41° E 16:56:17 10° NNE
Cosmos 2263 Rocket 4.3 16:47:54 10° W 16:51:58 20° NW 16:56:02 10° N
Cosmos 1898 Rocket 3.8 16:47:57 10° S 16:53:00 50° ESE 16:58:03 10° NNE
Cosmos 923 Rocket 4.1 16:48:44 10° NNW 16:54:06 87° WSW 16:59:24 10° SSE
CZ-4C R/B 3.5 16:53:15 10° N 16:56:23 55° WNW 16:59:33 10° SSW
TELKOM 3 4.1 16:54:32 10° WNW 16:56:25 26° N 16:58:24 10° ENE
Cosmos 1680 Rocket 3.5 16:53:08 10° NNW 16:58:24 79° ENE 17:03:35 10° SSE
Nadezhda 4 Rocket 4.0 16:53:04 10° S 16:59:16 78° E 17:05:26 10° N
Meteor 2-10 Rocket 4.3 16:55:51 10° NNW 17:01:08 59° W 17:06:10 10° S
Cosmos 1328 4.4 16:58:23 10° SSE 17:02:03 36° E 17:05:42 10° NNE
CZ-4B R/B 1.9 17:01:53 10° NNE 17:04:57 35° E 17:07:55 10° SSE
CZ-2D R/B 3.7 17:01:39 10° SE 17:05:13 38° ENE 17:08:47 10° N
Landsat 5 4.2 17:02:20 10° N 17:06:05 50° WNW 17:09:47 10° SSW
MOS 1 Rocket 3.8 17:02:46 10° NNE 17:06:39 33° E 17:10:36 10° SSE
NOAA 11 4.5 17:03:45 10° S 17:09:15 76° WSW 17:14:47 10° NNW
Cosmos-2242 3.9 17:06:09 10° NNE 17:09:52 27° ENE 17:13:34 10° SE
NOSS 3-1 (C) 4.2 17:05:01 10° NW 17:12:32 88° NE 17:21:18 10° SE
COSMO-SKYMED 1 2.8 17:09:52 10° NNE 17:14:06 48° E 17:18:17 10° S
BREEZE-M DEB (TANK) 2.5 17:13:28 10° WNW 17:15:36 36° N 17:17:14 16° ENE
Cosmos 1937 Rocket 3.6 17:10:26 10° S 17:15:37 58° ESE 17:20:52 10° NNE
Cosmos 1758 Rocket 4.2 17:12:26 10° SSE 17:16:31 36° E 17:20:38 10° NNE
Aureole 3 3.3 17:14:37 10° NNW 17:17:38 58° W 17:20:34 10° S
USA 290 2.8 17:18:57 10° N 17:21:56 35° ENE 17:24:53 10° SE
NOSS 2-1 (C) 3.5 17:20:32 10° SW 17:23:48 54° NW 17:27:15 10° NNE
CZ-4 R/B 4.5 17:21:07 10° SSE 17:25:10 57° ENE 17:29:16 10° N
Cosmos 1833 Rocket 2.7 17:20:20 10° NNW 17:25:54 57° ENE 17:31:24 10° SE
H-2A R/B 2.4 17:22:57 10° SE 17:27:39 40° ENE 17:32:30 10° N
NOSS 2-1 (D) 3.8 17:26:34 10° WSW 17:29:46 46° NW 17:33:06 10° NNE
Cosmos 1939 Rocket 3.2 17:25:51 10° S 17:29:55 72° W 17:33:58 10° NNW
Helios 1A Rocket 3.7 17:26:41 10° SE 17:30:15 29° ENE 17:33:52 10° N
H-2A R/B 3.2 17:27:02 10° N 17:31:14 46° WNW 17:35:20 10° SW
Cosmos 2344 4.3 17:23:12 10° NW 17:32:27 73° NE 17:45:25 10° SE
Cosmos 1602 Rocket 3.6 17:28:55 10° S 17:33:16 84° W 17:37:42 10° N
Cosmos 44 4.3 17:29:11 10° WSW 17:33:50 45° NW 17:38:49 10° NNE
USA 229 DEB 3.9 17:26:39 10° NW 17:34:00 88° NE 17:41:44 10° SE
USA 229 3.9 17:26:45 10° NW 17:34:06 88° NE 17:41:51 10° SE
Cosmos 2026 Rocket 3.9 17:28:22 10° S 17:34:27 69° E 17:40:41 10° NNE
CZ-3B R/B 2.1 17:32:23 10° NW 17:35:05 73° NE 17:43:17 10° ESE
Feng Yun 1-1 Rocket 4.3 17:29:41 10° SSE 17:35:10 88° WSW 17:40:51 10° NNW
SJ 16-02 3.4 17:33:05 10° WSW 17:36:46 26° WNW 17:40:28 10° N
YAOGAN 1 2.7 17:35:04 10° SE 17:39:13 48° ENE 17:43:23 10° N
Cosmos 1689 Rocket 2.6 17:41:34 32° E 17:41:56 33° E 17:44:32 10° SSE
Cosmos 1844 Rocket 4.4 17:37:14 10° WSW 17:42:11 30° NW 17:47:10 10° N
Cosmos 1553 Rocket 4.1 17:36:25 10° N 17:42:41 53° ENE 17:48:49 10° SSE
Aureole 3 Rocket 2.5 17:40:05 10° N 17:43:22 83° E 17:47:29 10° S
COSMOS 2406 3.2 17:39:28 10° NNW 17:45:18 88° ENE 17:51:03 10° SSE
Cosmos 2082 Rocket 2.5 17:40:10 10° NNW 17:45:41 46° ENE 17:51:08 10° SE
HJ-1C 4.1 17:47:04 30° ENE 17:47:04 30° ENE 17:49:54 10° N
Cosmos 1703 4.3 17:43:38 10° SSW 17:47:22 46° WNW 17:51:07 10° N
Cosmos 1825 Rocket 3.6 17:44:02 10° S 17:48:19 56° E 17:52:40 10° NNE
IRS-1C Rocket 4.1 17:43:27 10° SSE 17:48:42 90° ENE 17:54:00 10° NNW
Meteor 1-27 4.2 17:44:01 10° N 17:49:31 54° ENE 17:54:56 10° SSE
NOSS 3-1 (A) 4.1 17:42:07 10° NW 17:49:42 87° SW 17:58:27 10° SE
X-37B 1.2 17:47:02 10° W 17:50:10 53° SSW 17:51:36 27° SE
deb Kosmos-1763 4.5 17:49:00 10° N 17:52:22 37° ENE 17:52:52 35° E
Cosmos 1812 Rocket 4.3 17:48:19 10° NNW 17:52:37 56° W 17:56:51 10° S
ISS -2.5 17:50:01 10° WNW 17:53:03 29° N 17:53:50 26° NNE
Okean O Rocket 4.1 17:51:09 10° SSW 17:54:51 25° W 17:58:32 10° NW
NOAA 15 4.5 17:51:00 10° SSE 17:56:14 75° ENE 18:01:32 10° N
ATLAS 5 CENTAUR R/B 4.2 17:57:38 10° NNW 17:58:32 10° N 17:59:28 10° N
CZ-4 R/B 1.3 17:54:51 10° SSE 17:58:53 90° SE 18:02:53 10° NNW
Iridium 4 Rocket 3.6 17:55:31 10° N 18:00:54 78° W 18:05:46 10° S
SKYMED 2 4.3 17:57:56 10° N 18:02:11 53° WNW 18:06:24 10° SSW
ERS-2 2.0 17:58:38 10° NNE 18:02:13 89° WNW 18:05:51 10° SSW
CSL-04 Rocket 3.7 17:57:56 10° SE 18:03:13 55° ENE 18:08:37 10° N
Okean-O 2.6 18:01:56 10° SSE 18:06:21 87° WSW 18:10:49 10° NNW
S3M 3.9 18:03:09 10° N 18:09:11 58° ENE 18:15:13 10° SSE
CZ-4C R/B 4.3 18:05:04 10° NNW 18:09:11 17° N 18:11:46 14° NE
USA 234 4.2 18:05:52 21° NE 18:09:14 33° N 18:14:57 10° WNW
Cosmos 1346 Rocket 2.8 18:07:27 10° SSW 18:11:23 78° W 18:15:12 11° N
Cosmos 1655 Rocket 4.1 18:05:38 10° SSE 18:11:37 52° E 18:17:38 10° NNE
Cosmos 2278 Rocket 2.3 18:06:21 10° SSW 18:12:01 80° WNW 18:17:11 13° NNE
Cosmos 1953 Rocket 3.4 18:10:28 10° S 18:14:47 71° E 18:17:58 18° NNE
CZ-2C R/B 4.1 18:09:40 10° S 18:14:59 51° W 18:20:34 10° NNW
SWARM C 4.4 18:14:06 10° S 18:17:24 87° W 18:18:11 50° N
SWARM A 4.2 18:14:12 10° S 18:17:31 81° W 18:18:52 33° N
Cosmos 2292 Rocket 3.4 18:14:44 10° S 18:19:37 68° E 18:20:41 46° NNE
Cosmos 1892 4.5 18:16:11 10° SSE 18:17:22 19° SSE 18:17:22 19° SSE
SAR-Lupe-4 3.8 18:17:50 20° N 18:20:09 66° WNW 18:23:41 10° SSW
Cosmos 44 Rocket 3.3 18:17:27 10° SSW 18:22:16 61° ESE 18:23:18 49° ENE
ARGOS 3.1 18:23:02 10° SSE 18:28:24 87° WSW 18:33:50 10° NNW
DMSP B5D1-3 4.4 18:23:48 10° NNE 18:28:56 87° WNW 18:34:03 10° SSW
Meteor 2-2 Rocket 4.3 18:24:49 10° N 18:30:44 59° ENE 18:34:20 24° SSE
Cosmos 1869 3.7 18:27:14 10° N 18:30:11 49° N 18:30:11 49° N
CZ-4B R/B 4.4 18:35:01 10° NNW 18:36:50 14° WNW 18:38:38 10° W
Cosmos 468 4.4 18:33:18 10° NNW 18:38:36 89° WSW 18:41:13 31° SSE
CZ-2C R/B 2.6 18:33:45 14° NNE 18:38:39 72° ESE 18:44:15 10° S
Cosmos 494 Rocket 3.8 18:37:25 10° NNW 18:42:29 69° ENE 18:42:29 69° ENE
Cosmos 2150 Rocket 3.8 18:39:38 10° SSW 18:44:47 90° ESE 18:45:58 55° NNE
Cosmos 1048 Rocket 4.0 18:42:26 10° NNW 18:47:35 77° WSW 18:49:36 37° S
Cosmos 2297 4.0 18:47:01 10° S 18:51:24 49° SSE 18:51:24 49° SSE
SL-08 RB Rocket 4.2 18:59:18 47° SW 19:00:13 57° W 19:04:39 10° NNW
H-2A R/B 3.9 19:02:50 10° SSW 19:07:11 28° W 19:11:40 10° NW
Cosmos 1125 Rocket 3.8 19:04:16 10° SSW 19:08:41 62° SW 19:08:41 62° SW
Cosmos 2266 Rocket 4.2 19:07:40 10° SSW 19:13:52 67° W 19:20:01 10° N
NOSS 2-2 (C) 4.5 19:15:05 10° NW 19:20:07 77° NW 19:20:07 77° NW
Cosmos 1943 Rocket 4.3 19:22:28 10° SSW 19:23:18 15° SSW 19:23:18 15° SSW
Cosmos 2082 Rocket 3.9 19:24:39 10° NW 19:29:33 30° WSW 19:33:42 13° SSW
ATLAS 2AS CENTAUR R/B 4.3 19:43:44 10° NNW 19:48:21 25° N 19:48:21 25° N
USA 234 4.2 19:53:12 39° NNW 19:53:12 39° NNW 19:57:39 10° NW
CZ-4C R/B 4.3 19:53:46 10° NNW 19:56:58 25° N 19:56:58 25° N
